Voltar ao catálogo

NOAA 16 DEB

AtivoPO
NORAD 42358·DEBRIS·🇺🇸 United States

Lançado Sep 21, 2000 de Vandenberg Space Force Base

Loading…

Próximas Passagens (próximas 24 horas)

TLE

AtualizadoSource: Space-Track

Época: Sep 13, 2026, 16:11 UTC

1 42358U 00055RA  26256.67441883  .00015560  00000-0  26600-2 0  9997
2 42358  98.8489  46.9425 0022595  44.8098 315.4924 14.68803447514054

Acompanhe NOAA 16 DEB em tempo real com AllMySat

Download on the App Store